Weather History for KWLD - February, 2013

Change the Weather History Date:

Tuesday, February 12, 2013

  Actual Average Record
Temperature  
Mean Temperature 34 °F -  
Max Temperature 37 °F 47 °F 57 °F (2003)
Min Temperature 30 °F 28 °F 10 °F (2006)
Degree Days  
Heating Degree Days 32    
Moisture  
Dew Point 30 °F    
Average Humidity 87    
Maximum Humidity 100    
Minimum Humidity 53    
Precipitation  
Precipitation 0.44 in - - ()
Sea Level Pressure  
Sea Level Pressure 30.06 in    
Wind  
Wind Speed 6 mph (North)    
Max Wind Speed 10 mph    
Max Gust Speed -    
Visibility 4 miles    
Events Fog , Rain , Snow    
Averages and records for this station are not official NWS values.
T = Trace of Precipitation, MM = Missing Value Source: NWS Daily Summary

Daily Weather History Graph

Daily Weather History Graph

Search for Another Location

Airport or City:

Trip Planner

Search our weather history database for the weather conditions in past years. The results will help you decide how hot, cold, wet, or windy it might be!

Date:

Astronomy

Feb. 12, 2013 Rise Set
Actual Time 7:20 AM CST 6:05 PM CST
Civil Twilight 6:53 AM CST 6:31 PM CST
Nautical Twilight 6:22 AM CST 7:02 PM CST
Astronomical Twilight 5:52 AM CST 7:32 PM CST
Moon 8:22 AM CST (2/12) 9:01 PM CST (2/12)
Length of Visible Light 11h 38m
Length of Day
10h 45m
Waxing Crescent, 7% of the Moon is Illuminated
Feb 12
Waxing Crescent
Feb 17
First Quarter
Feb 25
Full
Mar 4
Last Quarter
Mar 11
New

Hourly Weather History & Observations

Time (CST) Temp. Windchill Dew Point Humidity Pressure Visibility Wind Dir Wind Speed Gust Speed Precip Events Conditions
12:54 AM 35.1 °F 29.3 °F 23.0 °F 61% 30.16 in 10.0 mi NNE 6.9 mph - N/A   Clear
1:54 AM 36.0 °F 29.6 °F 24.1 °F 62% 30.14 in 10.0 mi NE 8.1 mph - N/A   Clear
2:54 AM 36.0 °F 32.1 °F 23.0 °F 59% 30.14 in 10.0 mi NNE 4.6 mph - N/A   Partly Cloudy
3:54 AM 32.0 °F - 24.1 °F 73% 30.15 in 10.0 mi Calm Calm - N/A   Clear
4:54 AM 36.0 °F 30.3 °F 23.0 °F 59% 30.11 in 10.0 mi ENE 6.9 mph - N/A   Overcast
5:54 AM 35.1 °F 27.9 °F 24.1 °F 64% 30.12 in 10.0 mi North 9.2 mph - N/A   Overcast
6:54 AM 36.0 °F 30.3 °F 21.9 °F 57% 30.14 in 10.0 mi East 6.9 mph - N/A   Overcast
7:54 AM 36.0 °F 29.0 °F 21.9 °F 57% 30.12 in 10.0 mi NNE 9.2 mph - N/A   Mostly Cloudy
8:54 AM 37.0 °F 31.6 °F 21.9 °F 54% 30.13 in 10.0 mi East 6.9 mph - N/A   Overcast
9:54 AM 37.9 °F 33.5 °F 21.9 °F 53% 30.15 in 10.0 mi ENE 5.8 mph - N/A   Overcast
10:54 AM 37.9 °F 32.7 °F 21.9 °F 53% 30.14 in 10.0 mi East 6.9 mph - N/A   Overcast
11:47 AM 37.4 °F 33.8 °F 26.6 °F 65% 30.11 in 6.0 mi ESE 4.6 mph - 0.00 in Snow Light Snow
11:54 AM 37.9 °F 32.7 °F 26.1 °F 62% 30.13 in 6.0 mi ESE 6.9 mph - 0.00 in Snow Light Snow
12:01 PM 37.4 °F 30.8 °F 28.4 °F 70% 30.10 in 3.0 mi East 9.2 mph - 0.00 in Snow Light Snow
12:25 PM 35.6 °F 31.7 °F 30.2 °F 81% 30.09 in 7.0 mi East 4.6 mph - 0.00 in Snow Light Snow
12:46 PM 35.6 °F - 30.2 °F 81% 30.07 in 2.0 mi Calm Calm - 0.03 in Snow Light Snow
12:54 PM 34.0 °F - 30.9 °F 89% 30.10 in 3.0 mi Calm Calm - 0.05 in Rain Light Rain
1:03 PM 33.8 °F - 30.2 °F 87% 30.06 in 1.8 mi Calm Calm - 0.02 in Snow Light Snow
1:23 PM 33.8 °F 30.8 °F 32.0 °F 93% 30.04 in 3.0 mi NNE 3.5 mph - 0.04 in Snow Light Snow
1:54 PM 33.1 °F 27.7 °F 32.0 °F 96% 30.05 in 2.5 mi North 5.8 mph - 0.10 in Snow Light Snow
2:23 PM 33.8 °F 30.8 °F 33.8 °F 100% 30.03 in 1.2 mi NW 3.5 mph - 0.04 in Snow Light Snow
2:31 PM 33.8 °F 30.8 °F 33.8 °F 100% 30.03 in 1.0 mi North 3.5 mph - 0.04 in Snow Light Snow
2:41 PM 33.8 °F 29.6 °F 32.0 °F 93% 30.02 in 0.8 mi North 4.6 mph - 0.06 in Snow Light Snow
2:51 PM 33.8 °F 30.8 °F 33.8 °F 100% 30.02 in 0.5 mi North 3.5 mph - 0.07 in Fog , Snow Snow
2:54 PM 33.1 °F 30.0 °F 33.1 °F 100% 30.05 in 0.5 mi North 3.5 mph - 0.08 in Fog , Snow Snow
3:06 PM 33.8 °F 28.6 °F 32.0 °F 93% 30.03 in 0.8 mi North 5.8 mph - 0.01 in Snow Light Snow
3:32 PM 33.8 °F 27.0 °F 32.0 °F 93% 30.03 in 1.0 mi North 8.1 mph - 0.03 in Snow Light Snow
3:49 PM 33.8 °F 27.0 °F 32.0 °F 93% 30.03 in 0.8 mi North 8.1 mph - 0.04 in Snow Light Snow
3:54 PM 33.1 °F 26.9 °F 32.0 °F 96% 30.06 in 0.8 mi North 6.9 mph - 0.05 in Snow Light Snow
4:18 PM 33.8 °F 27.0 °F 32.0 °F 93% 30.03 in 0.8 mi North 8.1 mph - 0.02 in Snow Light Snow
4:34 PM 33.8 °F 26.4 °F 32.0 °F 93% 30.03 in 0.5 mi North 9.2 mph - 0.03 in Fog , Snow Snow
4:45 PM 33.8 °F 25.8 °F 32.0 °F 93% 30.03 in 0.8 mi North 10.4 mph - 0.04 in Snow Light Snow
4:51 PM 33.8 °F 26.4 °F 32.0 °F 93% 30.03 in 1.0 mi North 9.2 mph - 0.04 in Snow Light Snow
4:54 PM 33.1 °F 25.5 °F 32.0 °F 96% 30.06 in 1.0 mi North 9.2 mph - 0.04 in Snow Light Snow
5:24 PM 33.8 °F 27.0 °F 32.0 °F 93% 30.03 in 0.8 mi North 8.1 mph - 0.01 in Snow Light Snow
5:51 PM 33.8 °F 27.0 °F 32.0 °F 93% 30.04 in 1.0 mi North 8.1 mph - 0.03 in Snow Light Snow
5:54 PM 33.1 °F 26.1 °F 32.0 °F 96% 30.06 in 1.0 mi North 8.1 mph - 0.03 in Snow Light Snow
6:11 PM 33.8 °F 27.7 °F 32.0 °F 93% 30.04 in 2.5 mi NNW 6.9 mph - 0.01 in Snow Light Snow
6:29 PM 33.8 °F 27.7 °F 32.0 °F 93% 30.04 in 1.5 mi North 6.9 mph - 0.03 in Snow Light Snow
6:54 PM 33.1 °F 26.1 °F 32.0 °F 96% 30.07 in 1.8 mi North 8.1 mph - 0.04 in Snow Light Snow
7:03 PM 33.8 °F 27.7 °F 32.0 °F 93% 30.04 in 2.5 mi North 6.9 mph - 0.00 in Snow Light Snow
7:12 PM 33.8 °F 28.6 °F 33.8 °F 100% 30.04 in 4.0 mi North 5.8 mph - 0.00 in Snow Light Snow
7:25 PM 33.8 °F 29.6 °F 33.8 °F 100% 30.03 in 5.0 mi NNE 4.6 mph - 0.01 in Snow Light Snow
7:40 PM 33.8 °F 30.8 °F 33.8 °F 100% 30.04 in 5.0 mi North 3.5 mph - 0.01 in Rain Light Freezing Rain
7:54 PM 33.1 °F 30.0 °F 33.1 °F 100% 30.07 in 5.0 mi NNW 3.5 mph - 0.01 in Snow Light Snow
8:01 PM 33.8 °F 30.8 °F 33.8 °F 100% 30.04 in 5.0 mi NNW 3.5 mph - 0.01 in Snow Light Snow
8:28 PM 33.8 °F - 33.8 °F 100% 30.04 in 4.0 mi Calm Calm - 0.02 in   Overcast
8:39 PM 33.8 °F - 33.8 °F 100% 30.04 in 5.0 mi Calm Calm - 0.03 in Rain Light Freezing Rain
8:54 PM 33.1 °F - 32.0 °F 96% 30.06 in 5.0 mi Calm Calm - 0.03 in Rain Light Freezing Rain
9:29 PM 33.8 °F 27.7 °F 32.0 °F 93% 30.04 in 6.0 mi NW 6.9 mph - 0.01 in Rain Light Freezing Rain
9:39 PM 33.8 °F 29.6 °F 32.0 °F 93% 30.04 in 6.0 mi NW 4.6 mph - 0.01 in   Overcast
9:54 PM 33.1 °F - 33.1 °F 100% 30.06 in 7.0 mi Calm Calm - 0.01 in   Overcast
10:18 PM 33.8 °F - 33.8 °F 100% 30.04 in 6.0 mi Calm Calm - N/A   Overcast
10:54 PM 32.0 °F - 32.0 °F 100% 30.06 in 5.0 mi Calm Calm - N/A   Mostly Cloudy
11:01 PM 32.0 °F - 30.2 °F 93% 30.03 in 5.0 mi Calm Calm - N/A   Scattered Clouds
11:34 PM 32.0 °F - 32.0 °F 100% 30.03 in 3.0 mi Calm Calm - N/A   Mostly Cloudy
11:36 PM 30.2 °F 26.7 °F 30.2 °F 100% 30.03 in 1.8 mi WSW 3.5 mph - N/A   Mostly Cloudy
11:40 PM 30.2 °F 25.4 °F 30.2 °F 100% 30.03 in 0.8 mi West 4.6 mph - N/A   Mostly Cloudy
11:54 PM 30.9 °F 27.5 °F 30.9 °F 100% 30.06 in 0.8 mi WSW 3.5 mph - N/A   Mist